DateTimeUTC,F1_A11,F1_S11,BsB_S11,BsG_S11,BsR_S11,BbsB_S11,BbsG_S11,BbsR_S11,BaB_A11,BaG_A11,BaR_A11,Tu_S11,T_S11,Uu_S11,U_S11,P_S11,T1_A11
2021-08-17T13:00:00Z,00000200,20000000,,,,,,,0001.92,0001.60,0001.37,18.7,25.2,08.5,05.7,0677.8,30.9
2021-08-17T13:01:00Z,00000200,20000000,,,,,,,-000.40,0000.10,-000.18,18.7,25.2,08.5,05.7,0677.8,30.9
2021-08-17T13:02:00Z,00000200,20000000,,,,,,,0000.10,-000.25,-000.18,18.7,25.2,08.5,05.7,0677.8,30.9
2021-08-17T13:03:00Z,00000200,60000000,,,,,,,0000.51,0000.46,0000.24,18.7,25.2,08.5,05.7,0677.8,30.9
2021-08-17T13:04:00Z,00000200,40000000,0001.40,0001.71,0000.80,0000.23,-000.03,-000.01,0000.16,0000.31,0000.70,18.8,25.1,08.7,05.9,0678.7,30.9
2021-08-17T13:05:00Z,00000200,00000000,0001.71,0001.38,0000.84,0000.88,0000.37,0000.07,0000.57,0000.23,0000.07,18.9,25.1,08.7,06.0,0678.8,30.9
2021-08-17T13:06:00Z,00000200,00000000,0002.16,0001.88,0001.41,0000.56,0000.34,0000.18,0000.34,0000.62,0000.41,18.9,25.1,08.7,06.0,0678.8,30.9
2021-08-17T13:07:00Z,00000200,00000000,0001.78,0001.28,0001.22,0000.49,0000.25,0000.22,0000.53,0000.42,0000.26,18.9,25.1,08.9,06.1,0678.8,30.9
2021-08-17T13:08:00Z,00000200,00000000,0002.89,0001.97,0001.34,0000.46,0000.08,0000.20,0000.57,0000.35,0000.64,19.0,25.1,08.8,06.1,0678.8,30.9
2021-08-17T13:09:00Z,00000200,00000000,0002.39,0001.80,0001.06,0000.93,0000.35,-000.05,-000.07,0000.44,-000.15,19.0,25.1,08.8,06.1,0678.8,30.9
2021-08-17T13:09:58Z,,00000000,0002.39,0001.80,0001.06,0000.93,0000.35,-000.05,,,,19.0,25.1,08.8,06.1,0678.8,
2021-08-17T13:09:59Z,00010200,00000000,0002.39,0001.80,0001.06,0000.93,0000.35,-000.05,,,,19.0,25.1,08.8,06.1,0678.8,31.0
2021-08-17T13:10:00Z,00010200,00000000,0002.38,0001.73,0001.65,0000.44,0000.38,0000.26,,,,19.0,25.1,08.7,06.0,0678.9,31.5
2021-08-17T13:10:00Z,00010200,00000000,0002.38,0001.73,0001.65,0000.44,0000.38,0000.26,,,,19.0,25.1,08.7,06.0,0678.9,31.5
2021-08-17T13:11:00Z,00010200,00000000,0001.26,0001.63,0000.99,0000.46,0000.49,0000.23,,,,19.0,25.1,08.6,05.9,0678.9,31.3
2021-08-17T13:12:00Z,00010200,00000000,0001.40,0001.04,0000.44,0000.51,0000.56,-000.13,,,,19.1,25.2,08.6,05.9,0679.3,30.5
2021-08-17T13:13:00Z,00010200,00000000,0001.71,0001.25,0000.77,0000.75,0000.29,-000.03,,,,19.2,25.2,08.7,06.0,0679.5,29.7
2021-08-17T13:14:00Z,00010200,00000000,0001.87,0001.64,0001.10,-000.01,0000.45,0000.18,,,,19.2,25.2,08.8,06.1,0679.2,29.2
2021-08-17T13:15:00Z,00010200,00000000,0002.40,0001.44,0001.30,0000.20,0000.29,0000.20,,,,19.2,25.2,08.7,06.0,0678.9,29.4
2021-08-17T13:16:00Z,00010200,00000000,0001.61,0001.18,0001.07,0000.21,0000.10,0000.09,,,,19.2,25.2,08.6,06.0,0678.9,30.4
2021-08-17T13:17:00Z,00010200,00000000,0001.64,0001.50,0001.29,0000.51,0000.56,0000.26,,,,19.2,25.2,08.6,06.0,0678.9,31.0
2021-08-17T13:17:19Z,,00000000,0001.64,0001.50,0001.29,0000.51,0000.56,0000.26,,,,19.2,25.2,08.6,06.0,0678.9,
2021-08-17T13:17:26Z,00010200,00000000,0001.64,0001.50,0001.29,0000.51,0000.56,0000.26,,,,19.2,25.2,08.6,06.0,0678.9,31.2
2021-08-17T13:17:28Z,,00000000,0001.64,0001.50,0001.29,0000.51,0000.56,0000.26,,,,19.2,25.2,08.6,06.0,0678.9,
2021-08-17T13:17:35Z,00000200,00000000,0001.64,0001.50,0001.29,0000.51,0000.56,0000.26,,,,19.2,25.2,08.6,06.0,0678.9,31.0
2021-08-17T13:18:00Z,00000200,00000000,0002.62,0001.79,0001.26,0000.84,-000.17,0000.35,0001.01,0000.94,0000.13,19.2,25.2,08.7,06.0,0678.8,31.0
2021-08-17T13:19:00Z,00000200,00000000,0002.04,0001.19,0000.77,0000.49,0000.15,0000.14,0000.60,-000.35,0000.29,19.2,25.2,08.6,06.0,0678.9,31.1
2021-08-17T13:20:00Z,00000200,00000000,0001.06,0001.33,0001.15,0000.42,0000.52,0000.41,-000.13,0000.17,-000.61,19.2,25.2,08.5,05.9,0678.9,31.2
2021-08-17T13:21:00Z,00000200,00000000,0002.68,0001.71,0001.07,0001.06,0000.46,0000.06,-000.30,-000.19,-000.14,19.2,25.2,08.6,06.0,0678.9,31.1
2021-08-17T13:22:00Z,00000200,00000000,0001.89,0001.59,0001.04,-000.19,0000.25,-000.17,0000.64,0000.20,0000.19,19.2,25.2,08.7,06.0,0678.9,31.1
2021-08-17T13:23:00Z,00000200,00000000,0001.82,0001.52,0001.25,0000.64,0000.30,0000.32,0000.36,0000.71,0000.22,19.2,25.2,08.8,06.1,0678.9,31.0
2021-08-17T13:24:00Z,00000200,00000000,0000.97,0001.26,0000.78,0000.64,0000.52,0000.22,0000.25,0000.21,0000.10,19.2,25.2,08.8,06.1,0678.9,31.0
2021-08-17T13:25:00Z,00000200,00000000,0001.74,0001.82,0001.12,0000.69,0000.08,-000.01,0000.78,0000.18,-000.11,19.2,25.2,08.6,06.0,0678.9,31.0
2021-08-17T13:26:00Z,00000200,00000000,0002.00,0001.42,0001.41,0000.58,0000.52,0000.25,0000.48,0000.47,0000.79,19.2,25.2,08.7,06.0,0678.9,31.0
2021-08-17T13:27:00Z,00000200,00000000,0002.42,0001.57,0000.90,0000.68,0000.17,0000.08,0000.70,0000.75,0000.39,19.2,25.2,08.6,05.9,0678.9,31.0
2021-08-17T13:28:00Z,00000200,00000000,0001.90,0001.41,0000.81,0000.28,0000.55,0000.21,0000.43,0000.16,0000.04,19.2,25.2,08.6,06.0,0678.9,31.0
2021-08-17T13:29:00Z,00000200,00000000,0001.99,0001.60,0001.14,0000.38,0000.11,0000.29,0000.38,0000.73,0000.49,19.2,25.2,08.6,05.9,0678.9,31.0
2021-08-17T13:30:00Z,00000200,00000000,0001.85,0001.49,0001.00,0000.66,0000.24,0000.55,0000.40,0000.27,0000.25,19.2,25.2,08.6,05.9,0678.9,31.0
2021-08-17T13:31:00Z,00000200,00000000,0002.95,0002.00,0001.74,0000.78,0000.48,0000.27,0000.78,0000.79,0000.47,19.2,25.2,08.4,05.8,0678.9,31.0
2021-08-17T13:32:00Z,00000200,00000000,0002.40,0002.28,0001.41,0000.41,0000.50,0000.33,0000.68,0000.43,0000.25,19.2,25.2,08.4,05.8,0678.9,31.0
2021-08-17T13:33:00Z,00000200,00000000,0002.12,0002.15,0001.58,0000.63,0000.53,0000.31,0000.53,0000.23,0000.60,19.2,25.2,08.3,05.8,0678.9,31.0
2021-08-17T13:34:00Z,00000200,00000000,0002.46,0002.64,0001.29,0000.43,0000.57,0000.17,0000.93,0001.05,0000.62,19.2,25.2,08.4,05.8,0678.9,30.9
2021-08-17T13:35:00Z,00000200,00000000,0002.96,0002.34,0001.59,0000.94,0000.56,0000.25,0000.47,0000.65,0000.40,19.2,25.2,08.5,05.8,0678.9,30.9
2021-08-17T13:36:00Z,00000200,00000000,0002.46,0001.91,0001.31,0000.23,0000.53,0000.32,0000.79,0000.66,0000.27,19.2,25.2,08.4,05.8,0678.9,30.9
2021-08-17T13:37:00Z,00000200,00000000,0004.03,0002.71,0001.97,0001.05,0000.59,0000.40,0001.05,0000.92,0000.98,19.2,25.2,08.4,05.8,0678.9,30.9
2021-08-17T13:38:00Z,00000200,00000000,0003.39,0002.47,0001.98,0000.94,0000.33,0000.71,0000.78,0000.85,0000.76,19.2,25.3,08.5,05.8,0678.9,30.9
2021-08-17T13:39:00Z,00000200,00000000,0004.09,0003.40,0002.84,0000.34,0000.44,0000.14,0001.10,0000.80,0000.53,19.2,25.3,08.6,05.9,0678.9,31.0
2021-08-17T13:40:00Z,00000200,00000000,0004.49,0003.52,0002.26,0001.05,0000.44,0000.29,0001.02,0001.12,0000.55,19.2,25.2,08.5,05.9,0678.9,30.9
2021-08-17T13:41:00Z,00000200,00000000,0003.82,0003.27,0002.02,0001.22,0000.34,0000.32,0001.14,0000.91,0000.66,19.2,25.3,08.4,05.8,0678.9,31.0
2021-08-17T13:42:00Z,00000200,00000000,0003.41,0002.94,0001.81,0000.41,0000.54,0000.07,0000.64,0000.76,0000.48,19.2,25.3,08.4,05.8,0678.9,31.0
2021-08-17T13:43:00Z,00000200,00000000,0003.51,0003.30,0002.44,0000.63,0000.85,0000.52,0001.18,0000.78,0001.08,19.2,25.3,08.5,05.9,0678.9,30.9
2021-08-17T13:44:00Z,00000200,00000000,0004.63,0003.85,0002.83,0000.58,0000.70,0000.15,0001.38,0000.99,0000.93,19.2,25.3,08.6,05.9,0678.9,30.9
2021-08-17T13:45:00Z,00000200,00000000,0005.13,0004.16,0003.39,0001.25,0000.19,0000.32,0001.11,0001.41,0000.73,19.3,25.3,08.7,06.0,0678.8,30.9
2021-08-17T13:46:00Z,00000200,00000000,0004.39,0003.13,0001.87,0000.55,0000.39,0000.39,0000.68,0000.76,0000.38,19.3,25.3,08.6,06.0,0678.8,30.9
2021-08-17T13:47:00Z,00000200,00000000,0002.71,0002.53,0001.46,0000.44,0000.48,0000.18,0001.20,0000.82,0000.69,19.3,25.3,08.5,05.9,0678.8,30.9
2021-08-17T13:48:00Z,00000200,00000000,0003.81,0002.99,0002.00,0000.96,0000.45,0000.26,0000.62,0000.65,0000.85,19.3,25.3,08.6,05.9,0678.9,31.0
2021-08-17T13:49:00Z,00000200,00000000,0004.73,0003.53,0002.32,0000.81,0000.33,0000.35,0001.36,0001.26,0000.76,19.3,25.3,08.6,06.0,0678.9,31.0
2021-08-17T13:50:00Z,00000200,00000000,0005.50,0003.78,0002.81,0000.70,0000.42,0000.26,0000.94,0000.67,0000.68,19.3,25.3,08.6,05.9,0678.9,31.0
2021-08-17T13:51:00Z,00000200,00000000,0003.31,0003.05,0002.12,0000.73,0000.59,0000.55,0001.16,0001.10,0000.67,19.3,25.3,08.5,05.9,0678.9,31.0
2021-08-17T13:52:00Z,00000200,00000000,0004.55,0003.42,0002.50,0000.91,0000.75,0000.08,0001.21,0001.26,0001.03,19.4,25.3,08.6,05.9,0678.9,31.0
2021-08-17T13:53:00Z,00000200,00000000,0006.15,0004.89,0003.27,0000.83,0000.76,0000.08,0001.19,0001.17,0001.07,19.4,25.3,08.7,06.0,0678.9,31.0
2021-08-17T13:54:00Z,00000200,00000000,0005.07,0004.07,0002.92,0000.50,0000.86,0000.29,0001.18,0000.90,0000.64,19.4,25.4,08.7,06.0,0678.9,31.0
2021-08-17T13:55:00Z,00000200,00000000,0005.47,0003.99,0002.97,0000.64,0000.71,0000.36,0001.24,0001.20,0000.66,19.4,25.4,08.6,05.9,0678.9,31.0
2021-08-17T13:56:00Z,00000200,00000000,0004.82,0004.07,0003.16,0000.78,0000.73,0000.29,0001.17,0000.86,0000.86,19.4,25.4,08.7,06.1,0678.9,31.0
2021-08-17T13:57:00Z,00000200,40000000,,,,,,,0000.59,0000.64,0000.41,19.4,25.5,09.1,06.3,0678.9,31.0
2021-08-17T13:58:00Z,00000200,60000000,,,,,,,0000.12,0000.08,-000.16,19.2,25.5,08.8,05.9,0677.9,31.0
2021-08-17T13:59:00Z,00000200,20000000,,,,,,,0000.12,0000.01,0000.19,19.2,25.6,08.7,05.9,0677.9,31.0
